Ketchikan, AK

11:23 PM AKDT on September 22, 2018 (GMT -0800)
Ketchikan International

Weather History for PAKT - November, 2017

Change the Weather History Date:

Saturday, November 25, 2017

  Actual Average Record
Temperature  
Mean Temperature 40 °F -  
Max Temperature 42 °F 42 °F 53 °F (1954)
Min Temperature 37 °F 34 °F 9 °F (2006)
Degree Days  
Heating Degree Days 26    
Moisture  
Dew Point 35 °F    
Average Humidity 81    
Maximum Humidity 100    
Minimum Humidity 61    
Precipitation  
Precipitation 0.06 in - - ()
Sea Level Pressure  
Sea Level Pressure 29.60 in    
Wind  
Wind Speed 10 mph (SSE)    
Max Wind Speed 16 mph    
Max Gust Speed 26 mph    
Visibility 10 miles    
Events Rain    
Averages and records for this station are not official NWS values.
T = Trace of Precipitation, MM = Missing Value Source: NWS Daily Summary

Daily Weather History Graph

Daily Weather History Graph

Search for Another Location

Airport or City:

Astronomy

Nov. 25, 2017 Rise Set
Actual Time 7:40 AM AKST 3:27 PM AKST
Civil Twilight 6:57 AM AKST 4:10 PM AKST
Nautical Twilight 6:10 AM AKST 4:56 PM AKST
Astronomical Twilight 5:26 AM AKST 5:40 PM AKST
Moon 12:40 PM AKST (11/25) 10:17 PM AKST (11/25)
Length of Visible Light 9h 13m
Length of Day
7h 46m
Waxing Crescent, 42% of the Moon is Illuminated
Nov 25
Waxing Crescent
Nov 26
First Quarter
Dec 3
Full
Dec 9
Last Quarter
Dec 17
New

Hourly Weather History & Observations

Time (AKST) Temp. Windchill Dew Point Humidity Pressure Visibility Wind Dir Wind Speed Gust Speed Precip Events Conditions
12:53 AM 42.1 °F 34.5 °F 36.0 °F 79% 29.62 in 10.0 mi SE 15.0 mph 24.2 mph 0.00 in   Overcast
1:53 AM 42.1 °F 34.2 °F 35.1 °F 76% 29.63 in 10.0 mi SE 16.1 mph 26.5 mph N/A   Overcast
2:53 AM 42.1 °F 35.7 °F 34.0 °F 73% 29.65 in 10.0 mi SE 11.5 mph - 0.00 in   Mostly Cloudy
3:53 AM 41.0 °F 34.7 °F 33.1 °F 73% 29.65 in 10.0 mi SSE 10.4 mph - N/A   Overcast
4:53 AM 41.0 °F 33.9 °F 32.0 °F 70% 29.65 in 10.0 mi SSE 12.7 mph - N/A   Scattered Clouds
5:53 AM 41.0 °F 34.7 °F 33.1 °F 73% 29.65 in 10.0 mi SSE 10.4 mph - N/A   Overcast
6:53 AM 42.8 °F 36.2 °F 32.0 °F 66% 29.66 in 10.0 mi SE 12.7 mph - N/A   Overcast
7:53 AM 42.8 °F 38.0 °F 32.0 °F 66% 29.65 in 10.0 mi SSE 8.1 mph - N/A   Overcast
8:53 AM 42.8 °F 38.0 °F 32.0 °F 66% 29.65 in 10.0 mi South 8.1 mph - N/A   Overcast
9:53 AM 42.8 °F 36.2 °F 30.2 °F 61% 29.66 in 10.0 mi SSE 12.7 mph 16.1 mph N/A   Overcast
10:53 AM 42.8 °F 36.6 °F 33.8 °F 70% 29.68 in 6.0 mi SSE 11.5 mph 17.3 mph N/A Rain Light Rain
11:53 AM 41.0 °F 35.8 °F 33.8 °F 76% 29.68 in 10.0 mi SSE 8.1 mph - N/A Rain Light Rain
12:53 PM 39.2 °F 31.2 °F 35.6 °F 87% 29.68 in 10.0 mi SSE 13.8 mph - N/A Rain Light Rain
1:53 PM 39.0 °F 34.0 °F 36.0 °F 89% 29.66 in 10.0 mi Variable 6.9 mph - 0.01 in   Overcast
2:53 PM 39.0 °F 36.8 °F 36.0 °F 89% 29.65 in 10.0 mi Variable 3.5 mph - 0.00 in Rain Light Rain
3:53 PM 39.0 °F 36.8 °F 36.0 °F 89% 29.63 in 8.0 mi SSW 3.5 mph - 0.01 in Rain Light Rain
4:53 PM 39.0 °F - 36.0 °F 89% 29.62 in 10.0 mi Calm Calm - 0.01 in   Overcast
5:53 PM 37.9 °F - 37.0 °F 97% 29.60 in 10.0 mi Calm Calm - 0.00 in Rain Light Rain
6:53 PM 37.9 °F - 37.0 °F 97% 29.57 in 10.0 mi Calm Calm - 0.01 in Rain Light Rain
7:53 PM 37.0 °F - 37.0 °F 100% 29.54 in 9.0 mi Calm Calm - 0.01 in Rain Light Rain
8:53 PM 37.9 °F 31.5 °F 35.1 °F 89% 29.50 in 10.0 mi WNW 9.2 mph - 0.01 in   Overcast
9:53 PM 37.9 °F 32.7 °F 35.1 °F 89% 29.45 in 10.0 mi WNW 6.9 mph - N/A   Overcast
10:53 PM 37.9 °F 32.7 °F 35.1 °F 89% 29.42 in 10.0 mi NW 6.9 mph - N/A   Overcast
11:53 PM 37.9 °F 30.9 °F 35.1 °F 89% 29.37 in 10.0 mi WNW 10.4 mph - N/A   Overcast